Location: Stonelick Lake State Park
(39.2170°N, 84.0850°W)
Time: 12:29:57
(UTC-05:00)

Daily predictions for brighter satellites

Satellite Brightness Start Highest point End
(mag) Time Altitude Azimuth Time Altitude Azimuth Time Altitude Azimuth
BREEZE-M DEB (TANK) 4.5 18:24:21 10° W 18:28:46 62° NNW 18:47:15 10° ENE
Cosmos 1812 3.0 18:42:30 10° N 18:46:14 44° E 18:49:55 10° SSE
NOAA 12 4.4 18:43:28 10° SE 18:48:34 48° ENE 18:53:41 10° N
Cosmos 1386 Rocket 4.5 18:44:12 10° S 18:50:13 61° E 18:56:09 10° NNE
METEOR-M 4.3 18:46:45 10° SE 18:51:54 51° ENE 18:57:03 10° N
GEOS 3 Rocket 4.1 18:50:18 10° NE 18:55:14 41° ESE 19:00:12 10° S
Cosmos 2360 Rocket 3.1 18:53:55 10° N 18:58:42 27° ENE 19:03:27 10° ESE
Cosmos 1980 Rocket 3.7 18:54:15 10° NW 18:59:34 42° WSW 19:04:51 10° S
Cosmos 1975 Rocket 4.0 19:02:36 10° NNW 19:06:48 52° W 19:10:59 10° S
Helios 1B rocket 4.2 19:07:49 12° E 19:07:49 12° E 19:09:18 10° ESE
Cosmos 1602 4.5 19:07:38 10° SSE 19:11:03 31° E 19:14:30 10° NNE
Cosmos 1633 3.3 19:08:13 10° SSE 19:11:31 32° E 19:14:51 10° NNE
FREGAT/IRIS 2.6 19:13:50 10° SSE 19:16:52 64° ENE 19:19:57 10° N
ALOS 2.5 19:15:05 10° SE 19:19:32 47° ENE 19:24:01 10° N
Cosmos 1833 4.3 19:14:54 10° S 19:20:25 53° ESE 19:25:55 10° NNE
Cosmos 1536 Rocket 3.5 19:21:15 10° N 19:25:44 74° E 19:30:11 10° SSE
Cosmos 2333 Rocket 4.1 19:25:03 10° NNE 19:26:34 11° NE 19:27:00 11° NE
Cosmos 1818 3.6 19:22:15 10° SSW 19:27:42 85° WNW 19:33:12 10° NNE
SL-16 R/B 2.7 19:27:13 10° NNW 19:32:49 64° WSW 19:38:24 10° S
SJ-6B 2.9 19:29:03 10° S 19:33:06 80° WSW 19:37:04 10° NNW
FengYun 1-2 T 4.1 19:29:47 10° SSE 19:35:12 67° ENE 19:40:40 10° N
TSX-5 3.2 19:33:02 10° SSW 19:36:14 84° WNW 19:39:05 12° NNE
DNEPR-1 R/B 3.9 19:32:07 10° NW 19:36:18 62° WSW 19:40:32 10° SSE
Cosmos 1023 Rocket 4.4 19:31:35 10° S 19:36:33 59° ESE 19:41:36 10° NNE
Resurs 01 Rocket 1.6 19:34:40 10° SSE 19:38:58 57° ENE 19:43:19 10° N
Cosmos 407 Rocket 4.4 19:36:02 10° SW 19:41:07 52° WNW 19:46:18 10° N
Cosmos 1340 2.5 19:38:00 10° N 19:41:48 83° E 19:45:35 10° S
Gbstr 26 Del rocket 2.8 19:39:17 10° SSW 19:42:59 49° SE 19:43:57 38° E
Meteor 1-19 Rocket 4.2 19:37:25 10° N 19:43:03 65° ENE 19:48:46 10° SSE
Cosmos 676 Rocket 4.2 19:38:02 10° SSW 19:43:11 72° WNW 19:48:25 10° NNE
Cosmos 1238 Rocket 1.9 19:40:13 10° N 19:43:14 69° E 19:45:29 16° SSE
DELTA 2 R/B (1) 3.6 19:40:01 10° W 19:45:39 81° SSW 19:48:39 29° ESE
Cosmos 2181 Rocket 3.9 19:42:26 10° N 19:48:43 83° E 19:55:02 10° S
Cosmos 2322 Rocket 3.4 19:45:22 10° NW 19:50:38 43° WSW 19:55:54 10° S
Tiangong 2 1.3 19:51:14 10° WNW 19:54:15 55° SSW 19:54:33 52° S
Cosmos 1300 Rocket 3.7 19:51:29 10° S 19:55:52 77° W 20:00:19 10° N
Meteor 1-13 Rocket 4.2 19:51:59 10° N 19:57:33 83° W 20:03:11 10° S
Cosmos 1536 2.7 19:54:16 10° S 19:58:14 66° E 20:02:12 10° NNE
Resurs 1-3 3.5 19:57:17 10° SSE 20:01:40 85° ENE 20:06:05 10° NNW
Cosmos 2322 3.6 19:57:48 10° NNW 20:03:34 79° ENE 20:07:31 21° SSE
CZ-2D R/B 3.0 20:03:05 60° SE 20:03:35 71° ENE 20:07:23 10° N
FENGYUN 3A 4.0 19:59:34 10° S 20:04:56 66° WSW 20:10:21 10° NNW
Cosmos 1140 Rocket 3.6 20:01:04 10° SSW 20:06:11 74° WNW 20:11:21 10° NNE
Cosmos 2074 Rocket 3.9 20:00:07 10° S 20:06:15 64° E 20:12:28 10° NNE
Cosmos 2184 Rocket 3.9 20:00:45 10° S 20:06:58 62° E 20:13:10 10° NNE
Meteor 1-23 Rocket 4.2 20:03:40 10° N 20:09:27 63° E 20:12:58 24° SSE
Cosmos 2208 Rocket 4.1 20:06:12 10° N 20:11:35 57° ENE 20:12:31 50° ESE
H-2A R/B 3.1 20:10:08 17° S 20:12:51 62° W 20:16:34 10° NNW
Spot 2 Rocket 3.8 20:10:02 10° S 20:15:02 65° WSW 20:20:05 10° NNW
COSMOS 2428 2.8 20:11:01 10° NNW 20:16:35 53° ENE 20:16:58 52° ENE
Cosmos 2237 4.1 20:11:26 10° NNW 20:17:10 68° ENE 20:18:32 50° SE
Meteor 2-4 Rocket 3.5 20:11:36 10° N 20:17:12 90° W 20:22:37 10° S
Cosmos 614 Rocket 4.0 20:13:28 10° SSW 20:18:33 75° WNW 20:23:38 10° NNE
SAR-Lupe-4 4.1 20:20:40 54° NW 20:20:40 54° NW 20:23:36 10° NNW
Cosmos 2333 4.4 20:14:32 10° NNW 20:20:01 49° ENE 20:20:01 49° ENE
Helios 1A 2.9 20:21:30 82° NNW 20:21:30 82° NNW 20:25:29 10° NNW
Cosmos 1850 Rocket 4.0 20:19:41 10° SSW 20:24:58 80° WNW 20:30:20 10° NNE
Cosmos 2237 Rocket 3.9 20:21:35 10° N 20:23:53 18° NNE 20:23:53 18° NNE
Okean 1 Rocket 4.1 20:22:32 10° SSW 20:26:50 46° W 20:31:10 10° N
Envisat 3.9 20:33:05 36° NNE 20:33:05 36° NNE 20:36:13 10° N
USA 229 DEB 3.9 20:24:38 10° NNW 20:31:36 52° NE 20:32:15 51° ENE
USA 229 3.9 20:24:45 10° NNW 20:31:41 52° NE 20:32:20 50° ENE
Cosmos 2285 Rocket 3.9 20:28:07 10° NNW 20:34:30 62° ENE 20:34:37 62° ENE
Cosmos 2219 3.2 20:32:58 10° SSW 20:38:44 81° WNW 20:41:02 38° NNE
Cosmos 2360 Rocket 3.3 20:37:32 10° NW 20:42:49 42° WSW 20:47:02 15° S
Helios 1B rocket 3.7 20:44:11 38° WSW 20:44:11 38° WSW 20:47:04 10° SSW
Cosmos 2219 Rocket 3.2 20:40:43 10° NNW 20:44:08 35° N 20:44:08 35° N
Cosmos 1025 Rocket 4.5 20:52:24 10° NNW 20:55:30 35° WNW 20:55:30 35° WNW
ATLAS 2A CENTAUR R/B 4.4 21:05:13 10° SW 21:07:25 19° SSW 21:07:25 19° SSW
Cosmos 2333 Rocket 3.6 21:06:13 10° NNW 21:09:02 30° N 21:09:02 30° N
BREEZE-M DEB (TANK) 4.4 21:10:27 10° WNW 21:12:05 32° W 21:12:05 32° W
